Terminal Aerodrome Forecast
Issued by NWS Green Bay, WI

Home | Current Version | Previous Version | Graphics & Text | Print | Product List | Glossary On
Versions: 1 2 3 4 5 6 7 8 9 10 11 12 13 14 15 16 17 18 19 20 21 22 23 24 25 26 27 28 29 30 31 32 33 34 35 36 37 38 39 40 41 42 43 44 45 46 47 48 49 50
000
FTUS43 KGRB 200800 AAA
TAFGRB
TAF AMD
KGRB 200853Z 2009/2106 31003KT P6SM SCT007 BKN100
      TEMPO 2009/2013 4SM BR BKN007
     FM201300 32005KT 6SM HZ BKN015
     FM201700 30005KT P6SM BKN035
     FM202300 11003KT P6SM SCT040
      TEMPO 2104/2106 3SM BR=

USA.gov is the U.S. government's official web portal to all federal, state and local government web resources and services.